Helicity
65 63 68 85 85 78 81 81 78 81 76 74 66 60 56 60 67 77 106 147 134 103 88 79 72 61 57 54 60 54 55 61 63 65 69 66 68 71 78 83 86 91 97
74 66 87 96 100 87 93 95 91 93 96 83 79 72 67 72 81 88 94 104 128 101 86 68 63 60 50 44 41 44 45 50 52 61 63 66 71 81 86 91 94 98 102
65 75 83 105 124 98 98 114 123 116 117 102 92 82 73 76 87 96 91 86 89 106 91 75 75 59 59 60 48 38 41 49 53 53 56 60 63 68 78 84 90 100 111
64 83 93 116 103 119 134 137 139 137 128 113 105 98 90 91 99 109 99 91 77 81 99 94 80 78 72 67 57 48 45 50 47 48 53 54 61 68 77 84 91 99 103
77 90 99 98 100 140 157 156 148 145 143 130 117 107 104 103 110 124 113 105 91 80 83 112 113 102 86 81 79 68 57 48 44 41 38 36 44 49 50 59 69 81 93
113 112 121 115 116 156 180 174 159 167 157 145 134 117 120 119 125 123 117 112 94 89 82 82 87 95 102 88 76 66 61 60 56 55 55 51 48 53 54 52 55 54 55
112 131 173 143 148 173 176 160 175 192 206 167 168 148 137 137 130 133 126 114 110 100 94 91 90 85 88 89 85 79 74 78 80 77 66 64 59 56 54 56 52 53 53
124 161 171 169 167 173 181 187 234 229 208 185 173 168 158 148 141 130 132 123 111 116 107 104 104 106 103 102 109 106 109 105 91 87 82 77 72 64 55 55 51 42 37
143 177 183 214 220 218 237 247 244 227 236 187 194 225 199 154 162 154 139 140 130 129 123 127 124 126 125 121 99 106 139 124 107 102 95 88 88 80 65 52 47 43 44
166 186 195 194 227 282 267 277 279 237 262 271 248 215 244 235 166 158 147 148 148 137 140 148 145 145 141 134 156 176 151 130 115 109 105 97 90 87 77 66 59 59 62
192 197 234 219 250 281 238 260 290 242 264 266 333 311 226 215 219 222 183 158 151 152 152 153 160 168 163 150 137 156 149 131 127 109 98 101 92 90 90 83 83 85 91
143 154 183 220 245 263 281 307 304 262 275 260 254 320 337 326 263 262 265 235 163 162 201 190 186 178 168 165 185 210 151 135 125 110 99 102 108 111 114 107 103 99 94
191 159 150 178 235 225 258 301 355 344 313 280 294 294 299 292 286 280 274 336 285 276 250 201 199 200 201 177 173 178 133 124 119 97 99 112 136 141 131 113 100 87 81
139 127 132 154 186 185 179 211 273 323 371 369 308 355 345 320 264 266 333 404 339 305 364 370 259 216 186 172 218 173 127 96 94 106 110 127 151 148 125 111 104 101 102
144 131 111 110 138 174 187 209 250 237 270 306 332 382 370 350 345 354 367 350 389 427 400 321 354 303 253 235 188 165 134 94 81 85 90 116 128 122 109 112 104 99 104
84 85 86 106 109 146 181 204 215 231 279 355 412 419 484 415 416 462 483 524 505 507 414 431 458 478 442 352 211 182 115 104 37 43 61 85 88 73 79 82 80 91 101
101 81 73 69 78 104 140 201 209 212 274 369 471 616 313 350 474 533 565 557 532 437 465 342 404 444 365 266 217 132 76 74 67 49 63 72 74 65 69 72 79 89 83
97 75 67 67 80 90 92 117 216 254 261 306 351 547 663 400 478 508 554 587 518 437 428 430 282 271 237 214 160 153 130 128 95 89 78 85 85 91 89 79 87 89 82
65 55 56 69 85 89 116 133 166 257 346 368 392 440 510 450 433 310 408 472 355 292 261 269 259 214 190 149 138 106 88 90 107 70 59 79 93 110 100 92 98 94 91
96 61 71 112 122 130 158 216 240 254 312 364 388 380 363 313 281 279 254 237 212 238 225 207 175 175 155 111 109 144 163 143 130 110 89 86 103 96 88 98 105 85 71
158 162 171 179 184 173 187 229 269 312 359 367 357 307 290 310 252 204 197 204 211 198 143 155 145 135 114 139 150 163 163 147 133 97 93 118 124 124 114 117 90 58 52
202 192 172 172 157 164 155 187 261 290 287 270 227 258 263 270 244 207 139 111 83 83 97 109 134 154 162 167 185 176 160 159 165 99 123 137 113 116 120 113 51 40 42
133 160 185 159 156 142 161 183 205 223 237 235 218 193 186 160 121 101 99 84 76 87 131 158 135 143 172 196 215 178 156 148 127 77 79 105 80 97 73 69 28 36 48
156 158 198 189 197 182 195 206 264 227 188 202 160 129 110 91 91 111 144 124 91 107 127 162 180 178 184 162 155 134 97 75 64 58 55 71 56 55 55 72 29 36 37
169 188 232 244 240 209 210 174 196 171 155 68 47 70 71 98 106 90 76 137 150 163 171 154 146 121 98 79 67 78 64 61 53 38 56 81 67 64 70 91 73 20 60
169 175 161 135 91 117 47 30 15 11 28 44 60 79 104 120 118 143 180 180 175 146 100 65 58 53 45 47 52 78 84 92 91 87 91 109 83 71 82 84 66 84 68
Wind_Speed
14 12 12 10 13 16 17 21 24 24 26 27 28 28 27 26 26 27 27 25 25 27 28 28 29 31 32 33 34 36 36 37 38 38 40 42 42 42 42 43 44 44 44
19 17 17 17 18 18 20 22 25 27 28 29 30 29 27 26 26 26 25 25 25 24 25 26 27 29 31 31 33 35 36 37 39 40 42 42 43 44 45 46 47 47 46
23 23 22 21 23 23 24 25 25 28 30 31 31 29 27 26 25 24 22 22 21 23 23 24 25 28 30 31 33 35 36 37 39 41 43 44 45 46 47 49 49 49 49
25 25 27 28 25 26 26 26 24 26 29 30 31 30 28 27 25 23 21 20 19 18 21 22 23 25 28 31 34 35 35 37 39 42 45 46 47 48 50 51 51 52 52
30 30 30 29 28 29 29 27 26 26 28 30 32 30 30 27 24 22 19 17 15 15 17 19 21 24 28 31 34 36 36 37 39 41 44 45 47 49 50 52 53 54 55
39 38 37 35 32 33 32 29 29 29 29 29 29 30 31 30 27 24 20 17 14 14 15 16 17 23 28 32 36 38 37 37 39 42 46 48 47 50 50 53 54 55 56
44 43 45 41 37 36 35 33 30 29 32 28 31 35 35 32 29 26 23 19 16 15 16 18 21 24 27 32 38 40 39 39 40 43 47 49 50 52 54 56 56 58 60
46 46 45 45 43 43 39 37 35 36 36 27 35 35 41 39 34 28 24 22 20 20 20 21 24 27 30 33 37 40 41 42 44 46 49 52 53 56 57 59 60 62 63
52 50 49 48 47 45 46 41 38 38 39 34 33 39 43 47 33 32 31 28 26 25 25 26 27 30 33 35 37 38 42 45 47 49 52 55 57 59 60 61 62 63 63
60 56 56 54 51 50 48 47 43 42 39 41 40 43 45 42 42 44 36 32 31 30 27 29 30 31 33 37 40 43 45 49 51 52 56 61 64 65 65 65 67 68 65
65 63 62 59 58 56 54 52 50 48 46 46 44 44 45 45 46 46 46 41 36 34 31 32 33 34 35 38 39 42 46 53 56 58 62 66 69 69 69 68 68 68 67
63 65 66 65 65 64 60 58 58 56 54 52 48 45 46 46 43 43 45 44 42 36 34 35 37 38 40 40 42 45 49 54 63 65 68 73 75 75 75 72 70 69 69
68 67 64 68 70 70 68 63 62 63 60 59 54 53 53 50 48 45 49 47 46 46 41 36 40 39 45 40 45 47 51 59 67 72 74 77 79 79 75 72 72 72 72
68 69 69 68 69 68 68 67 66 64 64 62 60 57 54 53 48 48 49 46 50 48 47 46 42 42 47 42 49 52 59 62 70 77 77 80 82 82 80 77 76 76 74
70 69 66 68 68 69 66 64 69 67 64 65 64 60 56 53 50 50 49 45 51 54 53 49 50 43 44 49 50 58 67 72 73 80 79 82 83 82 80 77 77 76 75
60 61 63 65 67 67 67 66 67 65 64 61 61 59 58 49 45 45 45 48 51 55 61 53 52 49 50 55 62 68 74 74 77 77 81 82 83 83 80 78 78 77 78
58 56 55 55 59 62 64 64 64 61 60 59 57 54 53 56 41 40 44 47 52 54 65 61 58 59 61 66 67 74 73 74 75 75 80 84 86 86 82 79 77 78 81
57 57 53 52 51 53 55 59 59 55 54 54 52 49 47 41 43 41 43 52 52 53 58 66 65 68 66 66 69 74 76 74 78 82 86 88 90 85 80 79 77 78 80
57 54 52 49 50 50 49 51 51 49 45 43 42 41 40 38 43 42 44 47 49 52 57 63 70 61 64 65 70 69 72 76 76 79 86 87 82 77 77 77 78 81 84
53 50 47 43 42 41 41 39 39 38 37 36 36 37 40 40 45 44 43 47 52 55 58 61 66 70 69 68 64 72 77 76 84 82 80 78 77 77 79 81 82 82 83
38 36 33 33 33 33 34 30 28 27 26 27 30 33 37 40 42 44 45 48 46 52 60 66 70 69 69 70 73 74 83 84 80 79 81 76 76 78 78 78 78 77 77
30 26 26 28 27 28 22 19 17 18 21 23 27 31 34 38 43 40 45 40 45 51 58 64 66 72 74 74 73 79 82 88 92 76 78 85 80 81 77 73 71 72 74
26 25 26 23 20 20 17 13 11 16 18 22 26 31 35 37 42 43 44 45 47 50 54 56 67 70 74 72 76 81 81 82 85 79 81 86 75 77 66 62 62 65 68
29 27 24 21 21 22 19 17 17 17 18 23 28 29 33 36 41 45 47 49 46 48 50 54 58 63 65 67 67 69 71 73 71 66 62 72 63 61 60 57 59 60 59
30 28 25 23 23 22 20 18 18 20 24 25 27 30 32 39 45 45 46 48 52 52 52 55 56 56 55 54 54 57 58 57 60 60 54 50 51 60 64 64 56 51 47
43 37 31 29 30 30 22 26 21 24 26 28 32 35 38 38 37 42 50 51 57 57 55 50 46 47 47 45 42 39 43 45 46 51 39 42 54 67 61 56 53 58 54
Wind_Direction
288 290 295 302 312 318 323 324 324 326 330 335 339 345 351 356 360 360 5 5 9 11 13 16 19 19 17 16 13 7 4 0 357 355 350 346 345 344 343 340 338 337 335
282 281 287 288 296 304 310 313 314 316 319 324 329 335 340 346 349 352 357 2 4 10 12 14 17 16 16 13 8 4 2 358 353 351 346 345 341 337 334 333 332 332 331
279 280 282 281 284 294 299 304 308 310 312 316 320 326 331 337 341 345 351 358 4 3 12 16 17 17 18 15 9 3 359 356 351 346 342 340 337 336 333 331 331 331 330
270 274 279 282 278 286 289 294 299 302 304 309 313 318 322 327 332 339 345 351 357 10 7 11 16 17 12 7 3 360 357 353 349 344 339 336 334 332 331 330 329 328 326
267 269 274 278 276 281 283 285 290 293 298 303 307 312 315 319 323 330 336 343 352 358 3 3 7 5 3 1 358 355 353 350 347 344 341 338 335 332 330 328 326 325 323
268 269 273 274 274 278 278 278 282 288 293 298 303 308 310 313 317 319 322 328 337 341 345 353 356 351 349 347 346 346 347 346 343 341 338 335 334 332 330 328 326 324 321
269 267 271 272 271 272 272 271 275 278 285 290 298 303 305 308 308 309 311 313 316 321 327 330 333 336 339 337 336 337 339 340 340 338 335 333 331 328 326 324 323 321 318
266 265 265 268 268 272 269 267 268 275 280 274 289 297 300 302 301 299 301 301 303 308 311 316 321 324 327 329 331 332 333 333 333 333 331 329 327 325 323 321 319 317 316
268 264 263 264 265 266 265 261 260 264 271 273 276 292 297 296 303 299 292 295 296 299 303 306 311 315 319 322 325 328 329 328 330 330 329 327 325 323 321 319 318 317 315
270 268 267 265 265 265 265 259 259 257 263 269 275 278 289 299 299 301 298 292 293 293 294 301 305 310 313 316 319 321 322 322 324 326 325 323 320 320 318 316 314 313 314
270 268 265 264 264 265 264 262 260 257 259 266 268 278 278 286 291 296 299 298 293 293 294 296 301 305 307 311 314 316 318 317 319 321 321 320 318 317 316 315 314 313 313
278 272 269 266 264 264 263 262 261 260 261 265 266 269 274 280 281 288 295 296 297 296 292 296 299 302 305 307 309 313 314 314 314 317 318 316 315 313 313 313 313 312 311
280 277 274 270 268 265 264 263 261 262 260 263 265 268 274 278 284 284 289 293 296 301 299 296 298 301 301 306 306 310 312 311 311 313 314 313 312 311 313 313 311 310 308
283 281 277 273 271 268 266 263 264 265 261 261 265 267 270 275 278 282 286 286 291 296 297 302 303 302 300 306 307 309 309 309 310 310 312 312 310 310 311 310 309 308 307
285 284 280 275 273 271 268 266 266 265 265 264 265 265 267 271 279 284 290 291 291 290 291 298 303 304 304 305 307 309 309 307 308 308 309 310 310 310 310 310 308 307 306
292 287 283 278 274 271 269 268 269 268 268 269 272 271 269 269 276 286 292 297 297 297 296 302 305 309 308 308 306 308 305 308 307 307 307 309 310 309 309 307 306 305 304
295 292 290 286 279 274 270 268 269 269 269 271 272 273 274 276 278 289 297 298 296 299 295 299 306 311 308 306 307 305 305 307 308 308 307 308 308 307 307 306 305 304 302
296 294 293 290 286 279 274 270 268 269 270 272 273 274 275 275 291 291 295 301 299 305 300 300 303 307 308 310 310 308 305 307 307 307 307 307 307 307 307 306 305 303 302
294 295 295 294 290 284 279 275 272 269 269 271 272 274 277 284 287 298 306 303 305 304 305 305 305 310 311 312 312 310 308 307 309 309 308 309 309 309 307 305 304 303 303
296 296 297 298 297 292 284 279 275 273 271 272 276 279 285 288 296 298 302 305 304 307 307 308 307 310 312 313 313 311 309 310 310 313 313 312 311 309 307 306 305 304 303
316 312 308 303 299 295 292 285 280 275 273 278 284 288 293 297 299 300 306 308 313 311 307 309 310 312 312 313 312 313 311 312 314 315 314 314 313 312 310 309 307 306 306
339 337 326 308 302 303 307 298 290 284 282 284 289 299 305 309 309 316 309 317 314 312 312 312 313 312 313 313 315 313 313 314 312 316 314 312 314 312 312 312 310 309 308
7 349 333 319 317 320 325 321 318 310 307 308 304 309 312 315 313 317 320 320 320 318 317 318 314 314 315 317 317 314 314 313 313 315 314 313 317 315 318 318 316 314 313
4 8 359 345 334 326 327 318 317 325 331 328 326 324 322 321 319 321 324 323 326 324 322 322 320 320 320 320 319 318 318 317 318 320 322 319 324 324 326 326 323 320 318
19 11 2 355 0 340 358 1 335 332 333 334 341 340 335 328 324 327 327 330 328 326 328 326 325 326 326 327 327 327 327 328 327 328 331 331 334 331 329 327 327 327 326
58 42 24 10 22 26 356 19 353 1 346 348 339 339 341 344 345 339 333 332 329 330 333 336 339 338 338 339 341 340 339 336 337 340 355 345 339 336 336 337 336 332 329